Weather History for Sallisaw, OK

Change the Weather History Date:

Saturday, March 8, 2014

  Actual Average Record
Temperature  
Mean Temperature 46 °F -  
Max Temperature 53 °F 64 °F 81 °F (1974)
Min Temperature 39 °F 37 °F 16 °F (1957)
Degree Days  
Heating Degree Days 19    
Moisture  
Dew Point 36 °F    
Average Humidity 73    
Maximum Humidity 100    
Minimum Humidity 54    
Precipitation  
Precipitation 0.02 in - - ()
Sea Level Pressure  
Sea Level Pressure 30.12 in    
Wind  
Wind Speed 6 mph (North)    
Max Wind Speed 13 mph    
Max Gust Speed -    
Visibility 8 miles    
Events Rain , Thunderstorm    
Averages and records for this station are not official NWS values.
T = Trace of Precipitation, MM = Missing Value Source: NWS Daily Summary

Daily Weather History Graph

Daily Weather History Graph

Search for Another Location

Airport:

Trip Planner

Search our weather history database for the weather conditions in past years. The results will help you decide how hot, cold, wet, or windy it might be!

Date:

Astronomy

Mar. 08, 2014 Rise Set
Actual Time 6:39 AM CST 6:20 PM CST
Civil Twilight 6:14 AM CST 6:46 PM CST
Nautical Twilight 5:44 AM CST 7:15 PM CST
Astronomical Twilight 5:15 AM CST 7:45 PM CST
Moon 11:34 AM CST (3/8) 1:06 AM CST (3/8)
Length of Visible Light 12h 32m
Length of Day
11h 41m
First Quarter, 52% of the Moon is Illuminated
Mar 8
First Quarter
Mar 16
Full
Mar 23
Last Quarter
Mar 30
New
Apr 7
First Quarter

Hourly Weather History & Observations

Time (CST) Temp. Windchill Dew Point Humidity Pressure Visibility Wind Dir Wind Speed Gust Speed Precip Events Conditions
12:15 AM 44.6 °F 42.2 °F 33.8 °F 66% 29.96 in 10.0 mi East 4.6 mph - N/A   Clear
12:35 AM 46.4 °F 44.3 °F 33.8 °F 62% 29.97 in 10.0 mi ENE 4.6 mph - N/A   Clear
12:55 AM 44.6 °F 42.2 °F 33.8 °F 66% 29.97 in 10.0 mi ENE 4.6 mph - N/A   Clear
1:15 AM 44.6 °F 41.4 °F 33.8 °F 66% 29.97 in 10.0 mi ENE 5.8 mph - N/A   Clear
1:35 AM 44.6 °F 43.1 °F 33.8 °F 66% 29.98 in 10.0 mi NE 3.5 mph - N/A   Clear
1:55 AM 44.6 °F 42.2 °F 33.8 °F 66% 29.98 in 10.0 mi ENE 4.6 mph - N/A   Clear
2:15 AM 44.6 °F 41.4 °F 33.8 °F 66% 29.98 in 10.0 mi ENE 5.8 mph - N/A   Clear
2:35 AM 44.6 °F 42.2 °F 33.8 °F 66% 29.98 in 10.0 mi ENE 4.6 mph - N/A   Clear
2:55 AM 42.8 °F 40.1 °F 33.8 °F 70% 29.98 in 10.0 mi ENE 4.6 mph - N/A   Clear
3:15 AM 42.8 °F 39.3 °F 33.8 °F 70% 29.98 in 10.0 mi ENE 5.8 mph - N/A   Clear
3:35 AM 42.8 °F 39.3 °F 33.8 °F 70% 29.97 in 10.0 mi ENE 5.8 mph - N/A   Clear
3:55 AM 42.8 °F 40.1 °F 33.8 °F 70% 29.97 in 10.0 mi ENE 4.6 mph - N/A   Clear
4:15 AM 42.8 °F 40.1 °F 33.8 °F 70% 29.98 in 10.0 mi ENE 4.6 mph - N/A   Clear
4:35 AM 44.6 °F 41.4 °F 33.8 °F 66% 29.99 in 10.0 mi ENE 5.8 mph - N/A   Clear
4:55 AM 42.8 °F 40.1 °F 33.8 °F 70% 30.01 in 10.0 mi NE 4.6 mph - N/A   Clear
5:15 AM 42.8 °F 40.1 °F 33.8 °F 70% 30.02 in 10.0 mi ENE 4.6 mph - N/A   Clear
5:35 AM 42.8 °F 40.1 °F 33.8 °F 70% 30.02 in 10.0 mi ENE 4.6 mph - N/A   Clear
5:55 AM 44.6 °F 41.4 °F 33.8 °F 66% 30.03 in 10.0 mi ENE 5.8 mph - N/A   Mostly Cloudy
6:15 AM 44.6 °F 42.2 °F 33.8 °F 66% 30.03 in 10.0 mi ENE 4.6 mph - N/A   Overcast
6:35 AM 44.6 °F 42.2 °F 33.8 °F 66% 30.05 in 10.0 mi NE 4.6 mph - N/A   Mostly Cloudy
6:55 AM 44.6 °F 42.2 °F 33.8 °F 66% 30.05 in 10.0 mi ENE 4.6 mph - N/A   Mostly Cloudy
7:15 AM 44.6 °F 40.2 °F 33.8 °F 66% 30.05 in 10.0 mi East 8.1 mph - N/A   Scattered Clouds
7:35 AM 44.6 °F 42.2 °F 33.8 °F 66% 30.06 in 10.0 mi ENE 4.6 mph - N/A   Scattered Clouds
7:55 AM 46.4 °F 45.2 °F 35.6 °F 66% 30.06 in 10.0 mi ENE 3.5 mph - N/A   Clear
8:15 AM 50.0 °F - 35.6 °F 58% 30.06 in 10.0 mi East 6.9 mph - N/A   Clear
8:35 AM 51.8 °F - 35.6 °F 54% 30.06 in 10.0 mi East 10.4 mph - N/A   Clear
8:55 AM 53.6 °F - 37.4 °F 54% 30.08 in 10.0 mi East 9.2 mph - N/A   Scattered Clouds
9:15 AM 53.6 °F - 37.4 °F 54% 30.10 in 10.0 mi Calm Calm - N/A   Overcast
9:35 AM 53.6 °F - 37.4 °F 54% 30.11 in 10.0 mi Calm Calm - N/A   Overcast
9:55 AM 53.6 °F - 37.4 °F 54% 30.11 in 10.0 mi Calm Calm - N/A   Overcast
10:15 AM 53.6 °F - 37.4 °F 54% 30.10 in 10.0 mi Calm Calm - N/A   Overcast
10:35 AM 53.6 °F - 37.4 °F 54% 30.12 in 10.0 mi Calm Calm - N/A   Overcast
10:55 AM 53.6 °F - 37.4 °F 54% 30.14 in 10.0 mi West 3.5 mph - N/A   Overcast
11:15 AM 53.6 °F - 37.4 °F 54% 30.15 in 10.0 mi WNW 4.6 mph - N/A   Mostly Cloudy
11:35 AM 53.6 °F - 37.4 °F 54% 30.15 in 10.0 mi West 4.6 mph - N/A   Overcast
11:55 AM 51.8 °F - 37.4 °F 58% 30.15 in 10.0 mi WNW 8.1 mph - N/A   Overcast
12:15 PM 51.8 °F - 37.4 °F 58% 30.12 in 10.0 mi NW 8.1 mph - N/A   Overcast
12:35 PM 51.8 °F - 37.4 °F 58% 30.12 in 10.0 mi NW 11.5 mph - N/A   Overcast
12:55 PM 50.0 °F - 39.2 °F 66% 30.12 in 10.0 mi NNW 9.2 mph - N/A   Overcast
1:15 PM 51.8 °F - 37.4 °F 58% 30.12 in 10.0 mi NNW 8.1 mph - N/A   Overcast
1:35 PM 50.0 °F - 37.4 °F 62% 30.12 in 10.0 mi NNW 12.7 mph - N/A Thunderstorm Overcast
1:55 PM 48.2 °F - 37.4 °F 66% 30.13 in 7.0 mi NNW 11.5 mph - N/A   Overcast
2:15 PM 48.2 °F - 37.4 °F 66% 30.13 in 7.0 mi NW 9.2 mph - N/A   Mostly Cloudy
2:35 PM 46.4 °F 41.9 °F 37.4 °F 71% 30.13 in 5.0 mi NW 9.2 mph - N/A   Haze
2:55 PM 46.4 °F 42.9 °F 37.4 °F 71% 30.13 in 5.0 mi NNW 6.9 mph - N/A   Haze
3:15 PM 46.4 °F 41.9 °F 37.4 °F 71% 30.14 in 5.0 mi NW 9.2 mph - N/A   Haze
3:35 PM 44.6 °F 39.2 °F 37.4 °F 76% 30.15 in 3.0 mi NW 10.4 mph - N/A   Drizzle
3:55 PM 42.8 °F 37.0 °F 37.4 °F 81% 30.16 in 1.5 mi NNW 10.4 mph - N/A Rain Light Rain
4:15 PM 42.8 °F 38.0 °F 37.4 °F 81% 30.18 in 1.2 mi NW 8.1 mph - N/A Rain Light Rain
4:35 PM 41.0 °F 36.4 °F 39.2 °F 93% 30.19 in 1.0 mi NNW 6.9 mph - N/A   Unknown
4:55 PM 41.0 °F 35.8 °F 39.2 °F 93% 30.19 in 1.0 mi NNW 8.1 mph - 0.01 in   Unknown
5:15 PM 39.2 °F 33.6 °F 39.2 °F 100% 30.20 in 1.5 mi NNW 8.1 mph - N/A Rain Light Rain
5:35 PM 39.2 °F 33.6 °F 37.4 °F 93% 30.21 in 1.8 mi NNW 8.1 mph - 0.01 in   Light Drizzle
5:55 PM 39.2 °F 34.2 °F 37.4 °F 93% 30.22 in 2.0 mi North 6.9 mph - 0.01 in Rain Rain
6:15 PM 39.2 °F 35.0 °F 37.4 °F 93% 30.22 in 2.5 mi North 5.8 mph - N/A Rain Light Rain
6:35 PM 39.2 °F 37.0 °F 37.4 °F 93% 30.22 in 5.0 mi North 3.5 mph - N/A   Mostly Cloudy
6:55 PM 41.0 °F 38.0 °F 37.4 °F 87% 30.22 in 5.0 mi NNW 4.6 mph - N/A   Mostly Cloudy
7:15 PM 41.0 °F 37.1 °F 37.4 °F 87% 30.23 in 5.0 mi WNW 5.8 mph - N/A   Overcast
7:35 PM 39.2 °F 33.6 °F 37.4 °F 93% 30.24 in 5.0 mi NW 8.1 mph - N/A   Overcast
7:55 PM 39.2 °F 34.2 °F 37.4 °F 93% 30.25 in 5.0 mi WNW 6.9 mph - N/A   Overcast
8:15 PM 41.0 °F 36.4 °F 37.4 °F 87% 30.25 in 7.0 mi NW 6.9 mph - N/A   Overcast
8:35 PM 39.2 °F 34.2 °F 37.4 °F 93% 30.26 in 5.0 mi West 6.9 mph - N/A   Overcast
8:55 PM 39.2 °F 34.2 °F 37.4 °F 93% 30.27 in 7.0 mi WNW 6.9 mph - N/A   Overcast
9:15 PM 39.2 °F 34.2 °F 37.4 °F 93% 30.27 in 7.0 mi WNW 6.9 mph - N/A   Overcast
9:35 PM 39.2 °F 35.0 °F 35.6 °F 87% 30.28 in 7.0 mi NW 5.8 mph - N/A   Overcast
9:50 PM 39.2 °F 35.0 °F 35.6 °F 87% 30.28 in 5.0 mi NW 5.8 mph - N/A   Overcast
10:15 PM 39.2 °F 33.6 °F 35.6 °F 87% 30.28 in 7.0 mi NNW 8.1 mph - N/A   Overcast
10:35 PM 39.2 °F 33.6 °F 35.6 °F 87% 30.28 in 7.0 mi NNW 8.1 mph - N/A   Overcast
10:55 PM 39.2 °F 35.0 °F 35.6 °F 87% 30.29 in 7.0 mi NNW 5.8 mph - N/A   Overcast
11:15 PM 39.2 °F 35.9 °F 35.6 °F 87% 30.29 in 7.0 mi NNW 4.6 mph - N/A   Mostly Cloudy
11:35 PM 39.2 °F 34.2 °F 35.6 °F 87% 30.30 in 7.0 mi NNW 6.9 mph - N/A   Scattered Clouds
11:55 PM 39.2 °F 35.0 °F 35.6 °F 87% 30.29 in 7.0 mi North 5.8 mph - N/A   Mostly Cloudy